Showing default

CS1, 49261

Orbit data source: Space-Track

CS1, 49261 is a payload satellite owned by Cesium (US) in SSO that was launched on Mon, 27 Sep 2021 UTC via an ATLAS V 401 launch vehicle from the Air Force Western Test Range (AFWTR). Payload-class satellites include a variety of spacecraft equipped with specific instruments for various scientific and technological missions. These include communications satellites like Starlink; space stations such as the ISS; scientific satellites like the Hubble; Earth observation satellites from companies like Planet Labs, Umbra, and HawkEye 360; GPS; miniature CubeSats for education and research; and military/defense satellites.

Loading next visibility...
Identifier
49261, 2021-088B
Orbit
SSO
Country
Flag of USUS
Related business
Manufacturer
Cesium
Mission
Operational Commercial Technology
Bus & Motor
CUBESAT 6U, Unknown motor
Mass
~10 kg wet, 10 kg dry
Launch date (UTC)
2021-09-27 (5 years ago)
Launch vehicle
ATLAS V 401
Launch site
Air Force Western Test Range (AFWTR)
Object type
Payload
Rocket body
Debris
Shape & HBR
Box + 3 Pan, 0.5 m
Radar Cross Section
0.150 m², Medium (>0.1 m² and < 1m²)

Expand to show TLE details & history
Last TLE update: 2 days ago

TLE from 2 days ago
0 CS1
1 49261U 21088B   26171.14236032  .00012889  00000-0  38333-3 0  9990
2 49261  97.3754 234.4183 0013224  73.9034 286.3664 15.34783847260870
Epoch: 2026-06-20T03:24Z
TLE epoch observation values (Epoch: 2026-06-20T03:24:59.931Z)
Latitude
-0.00005°
Longitude
-85.19264°
Altitude
462.136 km
Speed
7.637 km/s
True Right ascension
15h 37m 40s
True Declination
0° 00' 00"
Sunlit
Object was in full shadow at epoch
Visualization orbit readout
Latitude
Unknown
Longitude
Unknown
Altitude
Unknown
Speed
Unknown
Apparent Right ascension
Unknown
Apparent Declination
Unknown
Sunlit
N/A
Visualization observer readout
Local Sidereal Time
21:35:19
Azimuth
Unknown
Elevation
Unknown
Doppler factor
Unknown
Orbital elements
Apogee altitude
467.548 km
Perigee altitude
449.467 km
Semi-major axis
6,836.644 km
Eccentricity
0.00132
Inclination
97.3754°
RAAN
234.4183°
Arg. of periapsis
73.9034°
True anomaly
286.22094°
Mean anomaly
286.3664°
Eccentric anomaly
286.29368°
Mean motion
3.83954 °/min
Orbital period
93.76 mins
BSTAR
0.00038333
Loading maneuver chart data...
Computing Atmospheric mass density...
Loading historical data...
Loading historical data...
Loading historical data...
Loading historical data...
Loading historical data...
Loading historical data...
Loading historical data...
Other satellites on launch #88 in the year 2021 (2021-09-27 UTC)

Documentation

Showing up to 5 results
|